Cloud_Cover
0 0 0 0 0 0 0 1 0 0 0 3 5 5 6 15 4 0 3 55 4 45 100 100 100 100 100 76 9 5 100 79 24 85 5 95 100 100 40 10 96 100 100 94 98
0 0 0 0 0 0 0 0 0 2 1 3 5 33 3 51 1 3 99 69 51 86 40 52 2 47 100 100 97 97 85 31 5 2 12 100 100 100 74 99 27 39 100 67 100
0 0 0 0 0 0 0 0 0 1 1 56 27 6 4 8 2 64 100 16 96 100 100 100 54 12 100 100 20 23 75 30 14 45 88 100 100 100 100 53 60 31 100 87 100
0 0 0 0 0 0 0 0 0 0 2 0 5 5 0 5 20 5 5 5 4 0 2 90 100 100 16 72 15 19 20 7 5 88 100 100 100 100 100 83 14 5 20 94 63
0 0 0 0 0 0 0 0 0 0 0 0 2 0 11 5 3 1 0 2 0 5 5 8 100 100 76 90 82 91 14 78 30 54 100 100 100 100 100 100 54 5 38 30 97
5 5 4 0 0 0 0 0 0 0 0 0 0 0 6 63 0 0 5 0 0 16 27 5 91 83 95 100 81 52 53 100 91 98 100 100 100 100 100 100 24 5 47 6 92
5 5 5 4 0 0 0 0 0 0 0 0 0 0 0 1 5 5 1 0 0 8 6 99 15 100 63 100 89 100 100 55 5 98 100 100 96 100 100 82 100 56 96 69 90
2 5 5 5 0 0 0 0 0 0 0 0 0 1 0 0 0 4 5 5 3 5 28 52 90 22 97 5 100 100 100 69 34 100 100 100 100 100 100 100 100 71 100 99 24
0 5 4 0 1 0 0 0 0 0 0 0 0 0 0 0 0 5 5 3 5 5 84 83 92 32 100 86 36 89 70 5 5 100 100 100 100 100 100 100 100 100 95 99 52
4 0 0 0 0 0 0 0 0 0 0 0 0 0 0 0 1 5 28 5 5 5 5 83 70 57 100 92 48 98 86 24 5 100 100 67 100 100 98 100 100 100 100 100 100
0 0 0 0 0 0 0 0 1 0 0 0 0 0 0 0 4 30 5 5 5 5 75 80 89 100 75 47 91 4 8 87 62 100 100 78 100 100 100 100 100 100 100 100 100
3 0 0 0 0 0 0 0 1 6 31 0 0 0 0 0 2 5 5 5 5 5 5 56 90 66 100 27 15 8 5 85 100 71 100 98 100 100 100 100 100 100 100 100 100
0 0 0 0 0 0 0 0 1 4 33 1 0 0 5 0 3 5 4 5 5 5 5 32 60 8 92 99 82 99 96 99 100 44 89 93 100 75 38 100 100 100 100 100 99
0 0 0 0 0 0 0 0 0 37 5 0 0 3 17 0 4 5 37 5 5 5 5 5 11 5 5 100 100 65 48 92 100 92 98 100 100 100 73 100 100 100 100 100 100
0 0 0 0 0 0 0 0 4 5 0 1 0 3 40 3 4 3 8 5 5 5 12 5 5 0 5 80 84 72 100 100 100 100 100 100 100 94 100 85 100 100 100 100 83
2 0 0 0 0 0 0 0 5 0 4 0 0 3 0 0 0 0 5 4 5 5 5 5 6 5 4 5 5 70 100 100 100 100 95 96 100 100 98 100 100 100 100 100 93
5 0 0 0 0 0 0 0 5 6 0 0 0 0 0 0 0 11 31 34 59 32 52 5 28 82 10 5 14 98 100 100 93 74 32 77 100 100 58 100 100 100 100 100 100
5 0 0 0 0 0 0 4 14 1 0 0 0 0 0 0 0 69 23 100 5 5 76 89 56 65 92 6 31 99 100 91 48 55 28 12 90 100 23 100 100 100 100 100 99
0 0 0 0 0 0 2 15 6 5 0 0 0 0 0 0 0 0 95 52 24 13 3 92 77 95 86 13 28 84 95 100 51 40 20 5 67 100 72 100 100 100 100 100 100
5 0 0 0 0 0 5 30 54 3 0 0 5 4 41 3 0 3 5 90 30 1 5 58 93 57 93 67 6 61 96 100 100 67 5 72 100 99 100 100 100 100 100 100 100
0 0 0 0 0 2 5 3 0 0 0 0 3 5 4 5 1 1 2 4 2 0 4 95 98 94 96 75 38 30 50 100 91 96 83 100 79 100 100 100 70 100 100 100 100
3 4 0 0 4 81 5 0 0 0 0 0 0 5 5 4 3 4 5 0 0 0 5 70 100 100 100 84 76 88 75 64 100 80 100 100 100 100 100 100 100 98 100 100 100
14 5 2 0 5 56 3 0 0 0 0 0 0 5 5 5 0 0 0 0 0 0 90 63 100 94 100 100 100 92 100 87 100 100 100 100 100 100 100 100 100 100 100 100 100
5 2 5 5 31 5 7 5 0 0 0 0 5 5 0 0 0 1 0 0 0 3 97 15 94 100 100 100 90 78 88 98 99 98 100 100 100 100 100 100 100 100 100 99 100
6 10 5 5 5 5 8 5 3 4 0 0 1 4 22 13 5 5 1 1 0 21 31 55 96 100 100 100 100 77 15 86 91 100 100 100 100 100 100 100 100 100 100 100 100
5 5 5 9 1 5 5 5 3 2 4 0 42 51 5 33 5 9 53 71 8 58 100 93 89 94 100 100 100 96 99 100 100 100 100 100 100 100 100 100 100 100 100 100 100
4 5 23 12 5 5 5 4 3 2 0 5 5 5 4 0 5 5 40 38 96 83 92 97 95 100 100 100 100 100 100 100 99 100 100 100 100 100 100 78 100 52 100 100 100